Location: Pine Mountain Observatory
(43.7910°N, 120.9377°W)
Time: 04:39:57
(UTC-07:00)

Cosmos 1867 - Visible Passes

Search period start: 19 April 2018 00:00
Search period end: 29 April 2018 00:00
Orbit: 776 x 800 km, 65.0° (Epoch: 19 April)

Date Brightness Start Highest point End Pass type
(mag) Time Alt. Az. Time Alt. Az. Time Alt. Az.
19 Apr 6.5 00:59:42 10° N 01:01:54 12° NNE 01:04:04 10° NE visible
19 Apr 4.7 02:41:47 10° NNW 02:47:00 42° NE 02:52:10 10° ESE visible
19 Apr 4.1 04:25:36 10° NW 04:30:29 34° WSW 04:32:33 25° SSW visible
19 Apr 6.3 20:53:45 10° WNW 20:57:15 17° NNW 21:00:46 10° N visible
20 Apr 6.6 00:28:50 10° N 00:29:50 10° NNE 00:30:50 10° NNE visible
20 Apr 5.1 02:10:15 10° NNW 02:15:12 33° NE 02:18:06 20° E visible
20 Apr 3.8 03:53:44 10° NW 03:58:37 45° WSW 03:58:37 45° WSW visible
20 Apr 6.2 20:21:17 10° W 20:25:19 20° NW 20:29:21 10° NNE visible
21 Apr 5.4 01:38:44 10° NNW 01:43:21 27° NE 01:45:41 20° ENE visible
21 Apr 3.9 03:21:57 10° NW 03:26:16 51° WNW 03:26:16 51° WNW visible
22 Apr 5.7 01:07:16 10° NNW 01:11:28 22° NE 01:13:49 17° ENE visible
22 Apr 4.0 02:50:14 10° NW 02:54:25 53° NW 02:54:25 53° NW visible
23 Apr 5.9 00:35:51 10° N 00:39:32 18° NNE 00:42:14 13° ENE visible
23 Apr 4.1 02:18:34 10° NNW 02:22:50 54° NNW 02:22:50 54° NNW visible
23 Apr 6.5 20:33:03 10° NW 20:34:55 12° NNW 20:36:49 10° N visible
24 Apr 6.1 00:04:28 10° N 00:07:34 15° NNE 00:10:39 10° ENE visible
24 Apr 4.3 01:46:57 10° NNW 01:51:25 50° NNE 01:51:25 50° NNE visible
24 Apr 5.7 03:31:18 10° WNW 03:32:03 13° WNW 03:32:03 13° WNW visible
24 Apr 6.2 23:33:12 10° N 23:35:34 13° NNE 23:37:55 10° NE visible
25 Apr 4.6 01:15:22 10° NNW 01:20:08 43° NNE 01:20:08 43° NNE visible
25 Apr 5.5 02:59:15 10° NW 03:00:45 17° WNW 03:00:45 17° WNW visible
25 Apr 6.3 23:02:12 10° N 23:03:31 11° NNE 23:04:50 10° NE visible
26 Apr 4.8 00:43:49 10° NNW 00:48:49 35° NE 00:48:55 35° NE visible
26 Apr 5.2 02:27:21 10° NW 02:29:33 23° WNW 02:29:33 23° WNW visible
27 Apr 5.1 00:12:18 10° NNW 00:16:59 28° NE 00:17:46 27° NE visible
27 Apr 4.9 01:55:34 10° NW 01:58:24 30° NW 01:58:24 30° NW visible
27 Apr 5.4 23:40:49 10° NNW 23:45:07 23° NE 23:46:40 20° ENE visible
28 Apr 4.6 01:23:50 10° NW 01:27:19 40° NW 01:27:19 40° NW visible
28 Apr 5.7 23:09:23 10° N 23:13:12 19° NE 23:15:37 14° ENE visible
